Location: Bannatyne
(13.0833°N, 59.5333°W)
Time: 00:53:22
(UTC+00:00)

Explorer 7 - Pass Details

Date: 28 January 2020
Orbit: 485 x 679 km, 50.3° (Epoch: 20 February)

Event Time Altitude Azimuth Distance (km) Brightness Sun altitude
Rises 00:08:23 0° 246° (WSW) 2,717 11.5 -31.7°
Reaches altitude 10° 00:11:10 10° 264° (W) 1,784 10.3 -32.3°
Enters shadow 00:12:42 16° 284° (WNW) 1,407 9.5 -32.7°
Maximum altitude 00:14:06 19° 311° (NW) 1,268 - -33.0°
Drops below altitude 10° 00:16:56 10° 358° (N) 1,714 - -33.7°
Sets 00:19:33 0° 17° (NNE) 2,572 - -34.3°
